Time,TemperatureF,DewpointF,PressureIn,WindDirection,WindDirectionDegrees,WindSpeedMPH,WindSpeedGustMPH,Humidity,HourlyPrecipIn,Conditions,Clouds,dailyrainin,SoftwareType,DateUTC
2015-09-02 00:00:00,82.0,75.6,30.03,SE,140,0.0,1.0,81,0.00,CLR,,0.00,WeatherDisplay:10.37,2015-09-02 04:00:00,
2015-09-02 00:05:00,82.0,75.6,30.03,SE,140,0.0,0.0,81,0.00,CLR,,0.00,WeatherDisplay:10.37,2015-09-02 04:05:00,
2015-09-02 00:10:00,81.9,75.5,30.03,SE,140,0.0,1.0,81,0.00,CLR,,0.00,WeatherDisplay:10.37,2015-09-02 04:10:00,
2015-09-02 00:20:00,81.9,75.9,30.03,SE,140,1.0,5.0,82,0.00,CLR,,0.00,WeatherDisplay:10.37,2015-09-02 04:20:00,
2015-09-02 00:30:00,81.9,75.9,30.03,SE,140,0.0,1.0,82,0.00,CLR,,0.00,WeatherDisplay:10.37,2015-09-02 04:30:00,
2015-09-02 00:40:00,81.8,76.1,30.03,SE,140,2.0,4.0,83,0.00,CLR,,0.00,WeatherDisplay:10.37,2015-09-02 04:40:00,
2015-09-02 00:50:00,81.9,76.2,30.03,SE,140,3.0,5.0,83,0.00,CLR,,0.00,WeatherDisplay:10.37,2015-09-02 04:50:00,
2015-09-02 01:00:00,82.0,76.3,30.02,SE,141,1.0,5.0,83,0.00,CLR,,0.00,WeatherDisplay:10.37,2015-09-02 05:00:00,
2015-09-02 01:05:00,81.9,76.6,30.02,SE,141,0.0,5.0,84,0.00,CLR,,0.00,WeatherDisplay:10.37,2015-09-02 05:05:00,
2015-09-02 01:10:00,81.9,76.5,30.02,SE,140,1.0,5.0,84,0.00,CLR,,0.00,WeatherDisplay:10.37,2015-09-02 05:10:00,
2015-09-02 01:20:00,81.8,76.5,30.01,SE,140,0.0,3.0,84,0.00,CLR,,0.00,WeatherDisplay:10.37,2015-09-02 05:20:00,
2015-09-02 01:30:00,81.7,76.7,30.01,SE,140,0.0,3.0,85,0.00,,,0.00,WeatherDisplay:10.37,2015-09-02 05:30:00,
2015-09-02 01:40:00,81.6,76.6,30.01,SE,140,0.0,1.0,85,0.00,,,0.00,WeatherDisplay:10.37,2015-09-02 05:40:00,
2015-09-02 01:50:00,81.6,76.6,30.01,SE,140,0.0,4.0,85,0.00,,,0.00,WeatherDisplay:10.37,2015-09-02 05:50:00,
2015-09-02 02:00:00,81.6,76.6,30.00,SE,140,0.0,1.0,85,0.00,,,0.00,WeatherDisplay:10.37,2015-09-02 06:00:00,
2015-09-02 02:05:00,81.6,77.0,30.00,SE,140,0.0,0.0,86,0.00,,,0.00,WeatherDisplay:10.37,2015-09-02 06:05:00,
2015-09-02 02:10:00,81.5,76.9,30.00,SE,140,0.0,0.0,86,0.00,,,0.00,WeatherDisplay:10.37,2015-09-02 06:10:00,
2015-09-02 02:20:00,81.3,77.1,30.00,SE,140,0.0,4.0,87,0.00,,,0.00,WeatherDisplay:10.37,2015-09-02 06:20:00,
2015-09-02 02:30:00,81.4,77.2,29.99,SE,140,0.0,3.0,87,0.00,,,0.00,WeatherDisplay:10.37,2015-09-02 06:30:00,
2015-09-02 02:40:00,81.4,77.2,29.99,SE,140,0.0,1.0,87,0.00,,,0.00,WeatherDisplay:10.37,2015-09-02 06:40:00,
2015-09-02 02:50:00,81.2,77.0,29.99,SE,140,0.0,0.0,87,0.00,,,0.00,WeatherDisplay:10.37,2015-09-02 06:50:00,
2015-09-02 03:00:00,81.0,77.1,29.99,SE,140,0.0,1.0,88,0.00,,,0.00,WeatherDisplay:10.37,2015-09-02 07:00:00,
2015-09-02 03:05:00,81.0,77.1,29.99,SE,140,0.0,1.0,88,0.00,,,0.00,WeatherDisplay:10.37,2015-09-02 07:05:00,
2015-09-02 03:10:00,81.0,77.1,29.99,SE,140,0.0,1.0,88,0.00,,,0.00,WeatherDisplay:10.37,2015-09-02 07:10:00,
2015-09-02 03:15:00,81.0,77.1,29.99,SE,140,0.0,1.0,88,0.00,,,0.00,WeatherDisplay:10.37,2015-09-02 07:15:00,
2015-09-02 03:20:00,81.0,77.1,29.99,SE,140,0.0,0.0,88,0.00,,,0.00,WeatherDisplay:10.37,2015-09-02 07:20:00,
2015-09-02 03:26:00,81.0,77.1,29.99,SE,140,0.0,1.0,88,0.00,,,0.00,WeatherDisplay:10.37,2015-09-02 07:26:00,
2015-09-02 03:35:00,80.9,77.4,29.98,SE,140,0.0,1.0,89,0.00,,,0.00,WeatherDisplay:10.37,2015-09-02 07:35:00,
2015-09-02 03:40:00,80.8,77.3,29.98,SE,140,0.0,0.0,89,0.00,,,0.00,WeatherDisplay:10.37,2015-09-02 07:40:00,
2015-09-02 03:45:00,80.7,77.2,29.98,SE,140,0.0,1.0,89,0.00,,,0.00,WeatherDisplay:10.37,2015-09-02 07:45:00,
2015-09-02 03:50:00,80.6,77.1,29.98,SE,140,0.0,1.0,89,0.00,,,0.00,WeatherDisplay:10.37,2015-09-02 07:50:00,
2015-09-02 04:00:00,80.5,77.3,29.98,SE,140,0.0,1.0,90,0.00,,,0.00,WeatherDisplay:10.37,2015-09-02 08:00:00,
2015-09-02 04:10:00,80.4,77.2,29.98,SE,140,0.0,0.0,90,0.00,,,0.00,WeatherDisplay:10.37,2015-09-02 08:10:00,
2015-09-02 04:20:00,80.3,77.1,29.98,SE,140,0.0,0.0,90,0.00,,,0.00,WeatherDisplay:10.37,2015-09-02 08:20:00,
2015-09-02 04:30:00,80.2,77.0,29.99,SE,140,0.0,0.0,90,0.00,,,0.00,WeatherDisplay:10.37,2015-09-02 08:30:00,
2015-09-02 04:40:00,80.2,77.0,29.99,SE,140,0.0,0.0,90,0.00,,,0.00,WeatherDisplay:10.37,2015-09-02 08:40:00,
2015-09-02 04:50:00,79.9,76.7,29.99,SE,140,0.0,0.0,90,0.00,,,0.00,WeatherDisplay:10.37,2015-09-02 08:50:00,
2015-09-02 05:00:00,79.8,77.3,29.99,SE,140,0.0,1.0,92,0.00,,,0.00,WeatherDisplay:10.37,2015-09-02 09:00:00,
2015-09-02 05:05:00,79.7,77.2,29.99,SE,140,0.0,1.0,92,0.00,,,0.00,WeatherDisplay:10.37,2015-09-02 09:05:00,
2015-09-02 05:11:00,79.6,77.4,29.99,SE,140,0.0,1.0,93,0.00,,,0.00,WeatherDisplay:10.37,2015-09-02 09:11:00,
2015-09-02 05:20:00,79.2,77.0,30.00,SE,140,0.0,0.0,93,0.00,,,0.00,WeatherDisplay:10.37,2015-09-02 09:20:00,
2015-09-02 05:26:00,79.0,76.8,30.00,SE,140,0.0,1.0,93,0.00,,,0.00,WeatherDisplay:10.37,2015-09-02 09:26:00,
2015-09-02 05:35:00,78.7,76.5,30.00,SE,140,0.0,1.0,93,0.00,,,0.00,WeatherDisplay:10.37,2015-09-02 09:35:00,
2015-09-02 05:45:00,78.6,76.7,30.00,SE,140,0.0,0.0,94,0.00,,,0.00,WeatherDisplay:10.37,2015-09-02 09:45:00,
2015-09-02 05:50:00,78.5,76.6,30.00,SE,140,0.0,0.0,94,0.00,,,0.00,WeatherDisplay:10.37,2015-09-02 09:50:00,
2015-09-02 06:00:00,78.4,76.5,30.00,SE,140,0.0,0.0,94,0.00,,,0.00,WeatherDisplay:10.37,2015-09-02 10:00:00,
2015-09-02 06:05:00,78.3,76.4,30.00,SE,140,0.0,0.0,94,0.00,,,0.00,WeatherDisplay:10.37,2015-09-02 10:05:00,
2015-09-02 06:10:00,78.3,76.4,30.01,SE,140,0.0,0.0,94,0.00,,,0.00,WeatherDisplay:10.37,2015-09-02 10:10:00,
2015-09-02 06:20:00,78.1,76.3,30.00,SE,140,0.0,0.0,94,0.00,,,0.00,WeatherDisplay:10.37,2015-09-02 10:20:00,
2015-09-02 06:30:00,78.1,76.6,30.01,SE,140,0.0,0.0,95,0.00,,,0.00,WeatherDisplay:10.37,2015-09-02 10:30:00,
2015-09-02 06:40:00,77.9,76.4,30.02,SE,140,0.0,0.0,95,0.00,,,0.00,WeatherDisplay:10.37,2015-09-02 10:40:00,
2015-09-02 06:50:00,78.0,76.5,30.02,SE,140,0.0,0.0,95,0.00,,,0.00,WeatherDisplay:10.37,2015-09-02 10:50:00,
2015-09-02 07:00:00,78.0,76.5,30.02,SE,140,0.0,0.0,95,0.00,,,0.00,WeatherDisplay:10.37,2015-09-02 11:00:00,
2015-09-02 07:05:00,77.9,76.4,30.02,SE,140,0.0,0.0,95,0.00,,,0.00,WeatherDisplay:10.37,2015-09-02 11:05:00,